Home   Weather   Brazzaville   Past weeks

Flag for Congo Past Weather in Brazzaville, Congo — Yesterday and Last 2 Weeks

Now
77 °F

Clear.


Feels Like: 78 °F
Forecast: 75 / 86 °F
Wind: No wind

Location: Brazzaville / Maya-Maya

Current Time: Apr 25, 2017 at 12:09:38 am

Latest Report: Apr 24, 2017 at 11:00 pm


Visibility: 5 mi

Pressure: 29.92 "Hg

Humidity: 94%

Dew Point: 75 °F

Location of BrazzavilleLocation

Past Weather in Brazzaville — Graph

°F

Brazzaville Temperature Yesterday

Maximum temperature yesterday: 86 °F (at 3:00 pm)
Minimum temperature yesterday: 72 °F (at 12:00 am)
Average temperature yesterday: 77 °F

High & Low Weather Summary for the Past Weeks

 TemperatureHumidityPressure
High97 °F (Apr 10, 2:00 pm)100% (Apr 12, 4:00 am)30.04 "Hg (Apr 12, 4:00 am)
Low72 °F (Apr 12, 3:00 am)41% (Apr 18, 4:00 pm)29.65 "Hg (Apr 10, 5:06 pm)
Average81 °F77%29.86 "Hg
* Reported Apr 9 11:00 pm — Apr 24 11:00 pm, Brazzaville, Weather by CustomWeather, © 2017

Note: Actual official high and low records may vary slightly from our data, if they occured in-between our weather recording intervals... More about our weather records

Advertising

Brazzaville Weather History for the Previous 24 Hours

Scroll right to see more
 ConditionsComfort  
Time TempWeatherWind HumidityBarometerVisibility
11:00 pm
Mon, Apr 24
77 °FClear.No wind94%29.92 "Hg5 mi
10:00 pm79 °FClear.No wind89%29.92 "Hg5 mi
9:00 pm79 °FPassing clouds.No wind89%29.92 "Hg5 mi
8:00 pm81 °FPassing clouds.No wind84%29.89 "HgN/A
7:00 pm79 °FPassing clouds.3 mph89%29.89 "HgN/A
6:00 pm81 °FPassing clouds.6 mph79%29.86 "HgN/A
5:00 pm82 °FPassing clouds.7 mph74%29.86 "HgN/A
4:00 pm84 °FPassing clouds.7 mph74%29.86 "HgN/A
3:00 pm86 °FPassing clouds.3 mph66%29.86 "HgN/A
2:00 pm84 °FPassing clouds.2 mph66%29.86 "HgN/A
1:00 pm84 °FScattered clouds.No wind66%29.89 "HgN/A
12:00 pm82 °FScattered clouds.3 mph70%29.92 "HgN/A
11:00 am81 °FPartly sunny.5 mph74%29.95 "HgN/A
10:00 am79 °FPartly sunny.5 mph79%29.98 "HgN/A
9:00 am75 °FPartly sunny.2 mph89%30.01 "HgN/A
8:00 am73 °FPartly sunny.7 mph94%29.98 "HgN/A
7:00 am72 °FPartly sunny.5 mph100%29.95 "Hg5 mi
6:21 am72 °FClear.5 mph100%29.95 "Hg5 mi
5:58 am72 °FPartly sunny.2 mph100%29.95 "Hg5 mi
5:28 am72 °FPassing clouds.6 mph94%29.95 "Hg5 mi
5:00 am72 °FPassing clouds.6 mph94%29.92 "Hg5 mi
4:00 am72 °FPassing clouds.7 mph94%29.92 "Hg5 mi
3:00 am72 °FPassing clouds.5 mph100%29.95 "Hg5 mi
2:00 am72 °FLight rain. Passing clouds.3 mph100%29.95 "Hg5 mi
1:00 am72 °FLight rain. Passing clouds.5 mph100%29.98 "Hg5 mi
12:00 am72 °FLight rain. Passing clouds.5 mph100%30.01 "Hg5 mi
Weather by CustomWeather, © 2017

See weather overviewHow to use our weather pages